Weather History for Spokane Fairchild, WA

Change the Weather History Date:

Wednesday, January 4, 2012

  Actual Average Record
Temperature  
Mean Temperature 40 °F -  
Max Temperature 49 °F 31 °F 49 °F (2012)
Min Temperature 31 °F 22 °F -13 °F (2004)
Degree Days  
Heating Degree Days 25    
Moisture  
Dew Point 36 °F    
Average Humidity 87    
Maximum Humidity 100    
Minimum Humidity 60    
Precipitation  
Precipitation 0.02 in - - ()
Sea Level Pressure  
Sea Level Pressure 30.22 in    
Wind  
Wind Speed 7 mph (SE)    
Max Wind Speed 21 mph    
Max Gust Speed 28 mph    
Visibility 10 miles    
Events Rain    
Averages and records for this station are not official NWS values.
T = Trace of Precipitation, MM = Missing Value Source: NWS Daily Summary

Daily Weather History Graph

Daily Weather History Graph

Search for Another Location

Airport:

Trip Planner

Search our weather history database for the weather conditions in past years. The results will help you decide how hot, cold, wet, or windy it might be!

Date:

Astronomy

Jan. 04, 2012 Rise Set
Actual Time 7:38 AM PST 4:12 PM PST
Civil Twilight 7:03 AM PST 4:48 PM PST
Nautical Twilight 6:24 AM PST 5:27 PM PST
Astronomical Twilight 5:46 AM PST 6:04 PM PST
Moon 12:40 PM PST (1/4) 3:28 AM PST (1/4)
Length of Visible Light 9h 45m
Length of Day
8h 33m
Waxing Gibbous, 81% of the Moon is Illuminated
Jan 4
Waxing Gibbous
Jan 8
Full
Jan 16
Last Quarter
Jan 22
New
Jan 30
First Quarter

Hourly Weather History & Observations

Time (PST) Temp. Windchill Dew Point Humidity Pressure Visibility Wind Dir Wind Speed Gust Speed Precip Events Conditions
12:08 AM 33.8 °F 28.6 °F 33.8 °F 100% 30.33 in 10.0 mi ENE 5.8 mph - N/A   Clear
12:11 AM 33.8 °F 28.6 °F 33.8 °F 100% 30.34 in 10.0 mi ENE 5.8 mph - N/A   Clear
12:21 AM 32.0 °F 28.7 °F 32.0 °F 100% 30.36 in 10.0 mi NNE 3.5 mph - N/A   Clear
12:30 AM 32.0 °F 26.4 °F 32.0 °F 100% 30.36 in 10.0 mi NNE 5.8 mph - N/A   Clear
12:39 AM 32.0 °F 26.4 °F 32.0 °F 100% 30.36 in 10.0 mi NNE 5.8 mph - N/A   Clear
12:50 AM 32.0 °F 27.5 °F 32.0 °F 100% 30.36 in 10.0 mi ENE 4.6 mph - N/A   Clear
12:55 AM 31.5 °F 26.8 °F 31.5 °F 100% 30.36 in 10.0 mi ENE 4.6 mph - 0.00 in   Clear
1:55 AM 31.6 °F - 31.6 °F 100% 30.33 in 9.0 mi Calm Calm - N/A   Clear
2:13 AM 32.0 °F 27.5 °F 32.0 °F 100% 30.34 in 10.0 mi NE 4.6 mph - N/A   Clear
2:35 AM 32.0 °F 26.4 °F 32.0 °F 100% 30.32 in 10.0 mi NE 5.8 mph - N/A   Clear
2:55 AM 32.5 °F 27.1 °F 32.5 °F 100% 30.32 in 10.0 mi ENE 5.8 mph - 0.00 in   Clear
3:48 AM 35.6 °F - 35.6 °F 100% 30.31 in 10.0 mi Calm Calm - N/A   Partly Cloudy
3:54 AM 35.6 °F - 35.6 °F 100% 30.31 in 10.0 mi Calm Calm - N/A   Partly Cloudy
4:52 AM 33.8 °F 28.6 °F 33.8 °F 100% 30.29 in 10.0 mi NE 5.8 mph - N/A   Mostly Cloudy
4:55 AM 33.1 °F 26.9 °F 33.1 °F 100% 30.30 in 10.0 mi NNE 6.9 mph - 0.00 in   Mostly Cloudy
5:19 AM 33.8 °F 28.6 °F 33.8 °F 100% 30.32 in 10.0 mi North 5.8 mph - N/A   Overcast
5:55 AM 31.6 °F 26.0 °F 31.6 °F 100% 30.30 in 10.0 mi East 5.8 mph - 0.00 in   Clear
6:55 AM 31.3 °F 25.6 °F 31.3 °F 100% 30.32 in 10.0 mi ENE 5.8 mph - N/A   Overcast
7:55 AM 31.5 °F 26.8 °F 31.5 °F 100% 30.30 in 10.0 mi East 4.6 mph - N/A   Clear
8:55 AM 38.1 °F 35.7 °F 37.2 °F 97% 30.30 in 10.0 mi ENE 3.5 mph - N/A   Clear
9:55 AM 39.9 °F 34.5 °F 36.0 °F 86% 30.28 in 10.0 mi SE 8.1 mph - N/A   Clear
10:46 AM 44.6 °F 38.8 °F 35.6 °F 71% 30.24 in 10.0 mi SSE 11.5 mph - N/A   Clear
10:49 AM 44.6 °F 39.2 °F 35.6 °F 71% 30.24 in 10.0 mi SSE 10.4 mph - N/A   Clear
10:55 AM 44.8 °F 38.3 °F 35.4 °F 70% 30.24 in 10.0 mi SSE 13.8 mph - 0.00 in   Clear
11:55 AM 46.9 °F - 35.2 °F 64% 30.22 in 10.0 mi SSE 10.4 mph - N/A   Clear
12:55 PM 48.4 °F - 35.1 °F 60% 30.19 in 10.0 mi SSE 8.1 mph - N/A   Clear
1:55 PM 48.9 °F - 36.0 °F 61% 30.17 in 10.0 mi SSE 9.2 mph - N/A   Clear
2:55 PM 49.8 °F - 37.8 °F 63% 30.16 in 10.0 mi SSE 9.2 mph - N/A   Mostly Cloudy
3:55 PM 47.7 °F - 37.4 °F 68% 30.14 in 10.0 mi South 8.1 mph - N/A   Overcast
4:55 PM 45.9 °F 42.3 °F 37.2 °F 72% 30.14 in 10.0 mi South 6.9 mph - N/A   Overcast
5:55 PM 44.6 °F 40.2 °F 36.3 °F 73% 30.12 in 10.0 mi South 8.1 mph - N/A   Overcast
6:55 PM 44.6 °F 40.2 °F 35.4 °F 70% 30.11 in 10.0 mi South 8.1 mph - N/A   Overcast
7:43 PM 44.6 °F 40.2 °F 33.8 °F 66% 30.10 in 10.0 mi SSW 8.1 mph - N/A   Overcast
7:54 PM 44.6 °F 40.2 °F 35.6 °F 71% 30.12 in 10.0 mi West 8.1 mph - N/A   Overcast
7:55 PM 44.4 °F 39.5 °F 34.9 °F 69% 30.12 in 10.0 mi West 9.2 mph - N/A   Overcast
7:57 PM 44.6 °F 40.2 °F 33.8 °F 66% 30.11 in 10.0 mi WSW 8.1 mph - N/A   Overcast
8:55 PM 43.7 °F 38.1 °F 35.1 °F 72% 30.09 in 10.0 mi South 10.4 mph - N/A   Overcast
9:55 PM 46.9 °F - 36.9 °F 68% 30.08 in 10.0 mi SSW 18.4 mph 26.5 mph 0.00 in   Overcast
10:04 PM 46.4 °F 39.5 °F 39.2 °F 76% 30.08 in 10.0 mi SSW 17.3 mph 26.5 mph N/A Rain Light Rain
10:34 PM 44.6 °F 36.4 °F 44.6 °F 100% 30.08 in 8.0 mi SSW 20.7 mph 27.6 mph N/A Rain Light Rain
10:55 PM 44.6 °F 36.9 °F 44.6 °F 100% 30.06 in 10.0 mi South 18.4 mph 26.5 mph 0.02 in Rain Light Rain
11:01 PM 44.6 °F 37.2 °F 44.6 °F 100% 30.06 in 10.0 mi South 17.3 mph 26.5 mph N/A   Overcast
11:20 PM 44.6 °F 37.8 °F 44.6 °F 100% 30.06 in 10.0 mi South 15.0 mph - N/A Rain Light Rain
11:45 PM 42.8 °F 35.1 °F 42.8 °F 100% 30.07 in 10.0 mi South 16.1 mph - N/A   Overcast
11:55 PM 43.7 °F 36.0 °F 42.3 °F 95% 30.07 in 10.0 mi South 17.3 mph 25.3 mph 0.00 in   Overcast
11:58 PM 44.6 °F 37.2 °F 41.0 °F 87% 30.07 in 10.0 mi South 17.3 mph 25.3 mph N/A Rain Light Rain